Location: Neuvy Saint Sepulchre
(46.5953°N, 1.8122°E)
Time: 16:03:26
(UTC+02:00)

ISS - Pass Details

Date: 02 May 2026
Orbit: 414 x 424 km, 51.6° (Epoch: 21 May)

Event Time Altitude Azimuth Distance (km) Brightness Sun altitude
Exits shadow 05:35:48 - 294° (WNW) 2,397 -0.2 -10.0°
Rises 05:35:53 0° 294° (WNW) 2,364 -0.2 -10.0°
Reaches altitude 10° 05:38:02 10° 301° (WNW) 1,501 -1.2 -9.7°
Maximum altitude 05:41:18 45° 16° (NNE) 582 -2.6 -9.2°
Drops below altitude 10° 05:44:34 10° 91° (E) 1,504 0.0 -8.7°
Sets 05:46:43 0° 97° (E) 2,369 0.9 -8.4°
